Time,TemperatureF,DewpointF,PressureIn,WindDirection,WindDirectionDegrees,WindSpeedMPH,WindSpeedGustMPH,Humidity,HourlyPrecipIn,Conditions,Clouds,dailyrainin,SoftwareType,DateUTC
2013-08-22 00:21:00,93.0,70.0,29.78,South,180,2.0,3.0,47,0.00,,,0.00,,2013-08-22 07:21:00,
2013-08-22 00:52:00,91.0,72.0,29.78,SSE,158,5.0,12.0,54,0.00,,,0.00,,2013-08-22 07:52:00,
2013-08-22 01:22:00,90.0,75.0,29.79,SE,135,2.0,3.0,61,0.00,,,0.00,,2013-08-22 08:22:00,
2013-08-22 01:53:00,89.0,76.0,29.78,South,180,1.0,3.0,65,0.00,,,0.00,,2013-08-22 08:53:00,
2013-08-22 02:22:00,89.0,75.0,29.78,SSE,158,1.0,3.0,63,0.00,,,0.00,,2013-08-22 09:22:00,
2013-08-22 02:54:00,88.0,73.0,29.78,SE,135,1.0,3.0,61,0.00,,,0.00,,2013-08-22 09:54:00,
2013-08-22 03:22:00,88.0,73.0,29.78,ESE,113,2.0,6.0,62,0.00,,,0.00,,2013-08-22 10:22:00,
2013-08-22 03:33:00,87.0,73.0,29.78,SE,135,2.0,5.0,63,0.00,,,0.00,,2013-08-22 10:33:00,
2013-08-22 05:52:00,87.0,73.0,29.79,SSE,158,2.0,5.0,63,0.00,,,0.00,,2013-08-22 12:52:00,
2013-08-22 06:22:00,87.0,73.0,29.79,SE,135,1.0,2.0,64,0.00,,,0.00,,2013-08-22 13:22:00,
2013-08-22 06:52:00,87.0,73.0,29.80,SE,135,1.0,2.0,64,0.00,,,0.00,,2013-08-22 13:52:00,
2013-08-22 07:21:00,87.0,73.0,29.82,SE,135,2.0,3.0,64,0.00,,,0.00,,2013-08-22 14:21:00,
2013-08-22 07:52:00,87.0,74.0,29.81,SSW,203,5.0,5.0,65,0.00,,,0.00,,2013-08-22 14:52:00,
2013-08-22 08:22:00,88.0,75.0,29.83,SSW,203,0.0,2.0,66,0.00,,,0.00,,2013-08-22 15:22:00,
2013-08-22 08:54:00,88.0,75.0,29.83,South,180,3.0,5.0,66,0.00,,,0.00,,2013-08-22 15:54:00,
2013-08-22 09:24:00,90.0,76.0,29.83,South,180,5.0,8.0,63,0.00,,,0.00,,2013-08-22 16:24:00,
2013-08-22 09:54:00,91.0,76.0,29.83,South,180,2.0,3.0,62,0.00,,,0.00,,2013-08-22 16:54:00,
2013-08-22 10:23:00,92.0,76.0,29.84,South,180,5.0,6.0,60,0.00,,,0.00,,2013-08-22 17:23:00,
2013-08-22 10:53:00,93.0,75.0,29.83,South,180,7.0,9.0,56,0.00,,,0.00,,2013-08-22 17:53:00,
2013-08-22 11:21:00,96.0,75.0,29.84,South,180,6.0,9.0,52,0.00,,,0.00,,2013-08-22 18:21:00,
2013-08-22 11:52:00,97.0,75.0,29.84,South,180,5.0,7.0,50,0.00,,,0.00,,2013-08-22 18:52:00,
2013-08-22 12:22:00,97.0,73.0,29.82,South,180,6.0,7.0,47,0.00,,,0.00,,2013-08-22 19:22:00,
2013-08-22 12:53:00,99.0,73.0,29.81,South,180,7.0,12.0,44,0.00,,,0.00,,2013-08-22 19:53:00,
2013-08-22 13:23:00,101.0,74.0,29.80,SSW,203,6.0,9.0,42,0.00,,,0.00,,2013-08-22 20:23:00,
2013-08-22 13:52:00,102.0,73.0,29.78,SSE,158,5.0,8.0,40,0.00,,,0.00,,2013-08-22 20:52:00,
2013-08-22 14:22:00,103.0,72.0,29.76,South,180,2.0,6.0,38,0.00,,,0.00,,2013-08-22 21:22:00,
2013-08-22 14:54:00,104.0,72.0,29.74,South,180,5.0,7.0,36,0.00,,,0.00,,2013-08-22 21:54:00,
2013-08-22 15:24:00,104.0,70.0,29.72,SSW,203,5.0,8.0,34,0.00,,,0.00,,2013-08-22 22:24:00,
2013-08-22 15:53:00,104.0,68.0,29.70,South,180,3.0,6.0,32,0.00,,,0.00,,2013-08-22 22:53:00,
2013-08-22 16:22:00,105.0,70.0,29.70,South,180,5.0,7.0,33,0.00,,,0.00,,2013-08-22 23:22:00,
2013-08-22 16:52:00,105.0,71.0,29.70,SSE,158,6.0,10.0,34,0.00,,,0.00,,2013-08-22 23:52:00,
2013-08-22 17:23:00,98.0,66.0,29.70,ENE,68,12.0,17.0,35,0.00,,,0.00,,2013-08-23 00:23:00,
2013-08-22 18:52:00,80.0,66.0,29.83,NNW,338,10.0,20.0,62,0.05,,,0.04,,2013-08-23 01:52:00,
2013-08-22 19:22:00,77.0,68.0,29.76,WSW,248,0.0,0.0,74,0.15,,,0.15,,2013-08-23 02:22:00,
2013-08-22 20:55:00,79.0,69.0,29.75,ENE,68,3.0,5.0,71,0.00,,,0.15,,2013-08-23 03:55:00,
2013-08-22 21:24:00,81.0,69.0,29.77,NNE,23,1.0,3.0,68,0.00,,,0.15,,2013-08-23 04:24:00,
2013-08-22 21:54:00,81.0,69.0,29.79,NNE,23,2.0,5.0,67,0.00,,,0.15,,2013-08-23 04:54:00,
2013-08-22 22:22:00,82.0,70.0,29.78,NNE,23,0.0,0.0,68,0.00,,,0.15,,2013-08-23 05:22:00,
2013-08-22 22:52:00,82.0,72.0,29.79,NNE,23,0.0,1.0,71,0.00,,,0.15,,2013-08-23 05:52:00,
2013-08-22 23:21:00,81.0,72.0,29.77,NNE,23,0.0,0.0,73,0.00,,,0.15,,2013-08-23 06:21:00,
2013-08-22 23:41:00,80.0,71.0,29.77,NNE,23,0.0,0.0,75,0.00,,,0.15,,2013-08-23 06:41:00,
2013-08-22 23:52:00,80.0,72.0,29.77,NNE,23,0.0,1.0,76,0.00,,,0.15,,2013-08-23 06:52:00,